CAPE
1139 855 1025 592 697 757 910 646 578 399 498 10 2 189 206 758 891 128 435 234 434 545 534 776 154 190 585 300 96 243 102 0 13 0 0 56 64 116 368 269 537 716 768 802 890 1072 1148 1353 1591 2049 2398 2456 2664 2734 2723 2880 3038 3148 3174 3183 3204 3399 3468 3508 3690 3634 3524 3532 3476 3475 3344 3292 3148 3132 3186 3216 3181 3044 2885 2841 3055 2924 2925 2910 2842 2928 2898 2823 2708 2796 2656 2683 2755 2700 2520 2501 2595
930 789 1020 732 723 1004 985 1092 927 0 112 10 0 208 147 239 390 260 175 188 225 426 722 734 579 464 631 319 153 83 46 224 504 153 30 102 238 401 380 423 653 748 798 854 960 987 1380 1610 2073 2147 2273 2447 2750 2883 2807 2890 3025 3140 3216 3234 3391 3457 3504 3501 3619 3529 3423 3415 3390 3342 3290 3228 3178 3080 3057 3158 3147 3240 3108 3030 3014 3008 2988 2968 2968 2936 2830 2814 2611 2598 2582 2740 2674 2590 2468 2371 2354
698 766 775 824 812 1026 897 950 605 0 0 11 0 36 51 69 113 142 195 258 363 468 553 598 470 414 438 365 170 388 0 116 357 33 117 206 316 376 412 487 598 728 872 1021 1172 1284 1474 1617 2238 2330 2482 2270 2505 2634 2770 2835 2733 2792 3074 3312 3403 3378 3324 3424 3413 3269 3242 3280 3278 3259 3250 3190 3072 3110 3264 3261 3225 3195 3068 2968 2932 2906 3016 3016 2990 3012 2850 2444 2370 2336 2773 2650 2409 2420 2348 2526 2612
699 712 788 973 930 932 944 545 0 0 8 1 0 23 50 42 77 207 558 497 572 582 450 517 429 205 480 327 240 57 126 97 23 52 48 245 207 454 506 650 894 668 865 1083 1298 1357 1398 1708 2310 2410 2407 2412 2446 2476 2566 2760 2814 2830 2865 3058 3231 3335 3266 3264 3238 3146 3208 3209 3189 3209 3155 3006 3096 3352 3142 3166 3158 3078 2924 2846 2921 2844 3021 2930 3024 3020 2585 2384 2383 2486 2558 2812 2521 2350 2383 2396 2489
789 752 868 1033 1008 1005 694 41 149 0 64 2 64 0 156 84 172 602 632 525 562 521 318 350 286 220 213 363 281 2 118 155 91 143 149 479 500 551 635 811 782 748 702 773 942 1228 1412 2013 1945 2545 2292 2278 2311 2332 2387 2638 2630 2658 2690 2882 3136 3198 3130 3132 3165 3203 3193 3150 3195 3166 3030 3144 3341 3183 3167 3162 3211 2945 2906 2826 3021 2970 2794 2822 2848 2929 2737 2698 2283 2124 2329 2660 2710 2719 2578 2504 2465
948 942 808 1092 1203 702 801 153 106 124 1 0 16 5 101 139 298 603 623 363 286 238 270 293 363 368 294 344 401 446 90 70 90 178 292 459 620 659 857 1020 807 805 784 809 1124 1216 1430 2090 2472 2247 2408 2353 2194 2298 2416 2675 2623 2521 2816 3025 3109 3174 3130 3122 3176 3099 3074 3080 3152 3099 3118 3231 3273 3182 3176 3094 2943 2848 2897 3022 3058 3079 3036 2949 2852 2763 2708 2289 2372 2558 2090 2623 2496 2814 2528 2595 2620
741 1010 970 966 858 954 870 302 159 26 56 11 21 46 242 308 509 514 577 540 288 348 472 400 252 230 334 352 374 265 503 294 236 236 503 556 690 850 953 876 870 845 888 989 1286 1352 1362 2137 2204 2292 2407 2324 2119 2146 2548 2660 2488 2560 2709 2934 3123 3149 3275 3089 3252 3226 3076 3104 3166 3160 3180 3241 3163 3203 3130 2950 2856 2976 3043 3076 3075 3064 3026 2846 2847 2836 2738 2501 2162 2055 2502 2452 2630 2549 2554 2756 2646
663 1355 853 1002 1030 726 562 355 294 217 56 154 125 312 334 530 598 559 521 474 507 380 288 273 388 666 544 395 361 648 694 708 523 556 623 671 772 920 944 902 962 998 994 1216 1446 1511 1816 2102 1761 2282 2442 2267 2212 2286 2539 2476 2586 2701 2710 2814 3058 3081 3194 3204 3254 3289 3192 3140 3207 3275 3176 3279 3281 3136 2900 2882 2973 3096 3156 3116 2816 2530 2590 2782 2750 2516 2435 2556 2700 2318 2321 2378 2740 2702 2762 2790 2571
774 1449 1029 1411 1008 313 374 256 148 95 231 31 149 568 728 646 598 582 520 482 280 422 353 456 210 323 512 570 641 797 768 758 693 862 648 740 870 915 902 942 968 1084 1222 1302 1567 1817 1806 1920 2130 2262 2365 2268 2278 2254 2337 2470 2677 2730 2836 3002 2952 2936 3220 3220 3125 3218 3157 3109 3249 3197 3172 3192 3118 2971 2990 3002 3059 3160 3141 3056 2860 2918 2810 2596 2588 2628 2420 2498 2528 2466 2340 2532 2785 2839 2665 2612 2261
870 1292 1426 1005 498 227 40 69 143 154 178 159 266 645 654 662 678 626 522 400 349 438 418 424 374 415 652 499 602 864 763 815 794 731 734 862 898 922 966 962 1033 1066 1276 1416 1566 1862 1875 2160 2238 2087 2369 2324 2237 2281 2248 2480 2612 2684 2982 3086 2877 3017 3184 3257 3138 3154 3103 3100 3174 3206 3142 3126 3044 3020 2957 2950 3075 3112 3149 3094 2779 2882 2856 2714 2429 2263 2197 2238 2469 2574 2509 2609 2485 2696 2762 2549 2586
1001 940 1157 1234 471 236 33 26 176 167 196 206 314 615 671 652 672 627 462 346 466 557 640 608 642 606 558 649 876 1031 843 750 654 633 734 850 899 936 966 986 1017 1140 1313 1508 1624 1813 1928 2106 2380 2259 2300 2290 2373 2365 2385 2617 2688 2800 2983 2952 2886 3043 3216 3188 3056 3085 3032 3056 3132 3226 3151 3096 3014 3004 3002 3077 3152 2929 2918 2823 2924 2768 2591 2455 2235 2372 2425 2548 2693 2910 2635 2534 2596 2575 2653 2658 2444
1153 1012 1374 742 498 329 0 80 164 202 215 324 437 613 650 660 657 584 447 452 677 619 710 527 620 562 646 618 674 918 743 662 598 608 698 705 847 942 948 1028 1121 1228 1345 1552 1680 1791 1814 2033 2324 2350 2291 2241 2444 2462 2588 2767 2700 2856 3136 2917 2890 2992 3155 3090 2988 3020 2954 3027 3110 3169 3193 3078 2930 2968 3014 3065 3028 2932 2750 2922 2851 2573 2440 2469 2338 2599 2692 2916 2742 2547 2561 2590 2428 2462 2542 2720 2590
1398 1392 1310 952 728 251 19 148 158 213 215 391 469 558 630 674 629 498 461 570 714 656 643 633 612 544 503 715 985 804 699 672 656 655 711 802 806 912 972 1026 1165 1342 1415 1588 1675 1756 1654 1940 2209 2236 2296 2314 2645 2559 2785 2753 2755 3066 3076 2908 2986 3138 3074 3062 2938 3030 2936 2961 3057 3180 3164 3032 2922 2935 2966 2994 3061 2826 2797 2725 2644 2516 2486 2639 2555 2952 2420 3049 2700 2698 2412 2422 2586 2470 2533 2804 2594
1426 1263 1089 828 434 445 325 0 168 183 224 352 494 578 628 629 594 562 643 702 677 550 666 736 578 716 816 887 907 684 648 769 745 741 749 844 906 940 1006 1071 1192 1330 1475 1584 1672 1764 1706 1737 2030 2172 2270 2302 2486 2724 2736 2860 2867 3067 3026 2921 3006 3162 3172 2930 2889 2966 2950 2952 3038 3103 3066 2995 2888 2886 2996 3046 2959 2922 2918 2790 2651 2798 3100 2711 2774 2828 3034 2968 2896 2802 2791 2562 2576 2537 2593 2595 2580
1117 1441 1408 950 791 510 0 1 36 10 194 180 406 632 630 670 599 604 675 708 645 780 762 666 740 500 734 852 675 648 779 872 845 853 893 958 934 998 1067 1123 1227 1354 1531 1655 1690 1765 1737 1659 1870 2070 2231 2076 2373 2495 2502 2882 2980 3152 3122 2915 3033 3149 3146 3156 2952 3034 2968 2930 2930 3054 3016 2877 2839 2856 2839 2992 3029 2790 2725 2708 2810 2764 2917 2614 2414 2443 2539 2843 2755 2860 2975 2617 2836 2816 2829 2448 2862
1166 1690 1445 1322 894 278 102 0 0 1 33 26 404 687 658 674 651 708 727 698 756 748 646 752 702 787 581 711 709 730 851 898 911 919 995 998 1014 1051 1138 1175 1230 1398 1529 1608 1684 1789 1818 1708 1756 1912 1945 2096 2353 2422 2454 2718 2924 3017 3255 3018 3031 3030 3200 3170 2999 3076 3036 2913 2846 2962 2966 3102 2816 2796 2845 3037 2969 3136 3134 3156 3104 2937 2969 2483 2542 2404 2284 2191 2758 2889 2786 2551 2646 2810 2788 2560 2821
1472 1662 1611 1304 1015 525 312 0 0 40 0 302 552 705 747 726 732 852 762 852 798 700 703 656 747 840 728 778 828 940 972 1002 1040 997 958 1056 1053 1120 1196 1252 1299 1402 1454 1564 1654 1728 1773 1716 1763 1719 1854 2112 2322 2404 2474 2676 2947 3112 2955 2832 2922 3150 3132 3092 3006 3060 3044 2816 2842 2852 2950 3466 2864 2954 2978 3149 3150 3486 3166 3258 2936 2812 2894 2461 2216 2276 2387 2729 2894 2936 3147 3130 2677 3231 3161 2854 2506
1796 1822 1434 1280 1200 1044 784 0 0 0 4 473 578 690 707 788 742 863 865 797 726 655 882 885 952 980 906 931 1004 1016 982 986 931 1030 1069 1049 1030 979 1003 1105 1165 1143 1391 1488 1603 1720 1716 1762 1860 1794 1878 2146 2223 2259 2376 2535 2650 2945 2676 2736 2716 2784 2470 2980 3065 2798 2904 2793 2821 2824 2827 3328 2790 2804 2717 3354 3461 3680 3677 3305 3088 2988 3056 2573 2559 2234 2541 2549 2876 2770 2893 3048 3232 3304 3176 2606 3132
1694 1260 1088 1076 959 976 800 336 0 0 0 481 610 696 709 770 725 820 782 778 732 889 1006 1028 1084 1103 1069 1101 1110 1060 1016 966 918 991 1044 966 967 922 959 981 1029 1082 1251 1441 1604 1676 1785 1814 1909 1943 1894 2087 2148 2194 2267 2401 2473 2501 2702 2717 2646 2966 3061 3200 2793 3040 2603 2571 2569 2630 2985 2993 2829 2725 2904 3160 3641 3520 3910 3446 3077 2828 2573 2373 2282 2546 2934 3045 2986 2814 3114 3081 3144 3487 3136 2780 3007
1698 1524 1193 992 932 819 567 242 0 0 15 527 635 747 747 806 858 820 736 728 868 929 974 1036 1120 1159 1201 1174 1160 1130 1091 1015 1048 1124 1018 1004 960 919 931 985 1024 1023 1099 1280 1496 1652 1736 1853 1900 1965 1892 2006 2133 2184 2188 2281 2362 2366 2623 2670 2680 2497 2825 2920 2659 2766 2634 2602 2558 2568 2669 2788 2846 2752 3434 3190 3127 3584 3279 3792 3197 2931 3519 3754 3049 3893 3663 3558 3506 3968 3669 3456 4282 3855 3320 3365 3604
1843 1672 1568 1207 777 788 733 582 306 0 0 470 657 781 722 847 894 754 710 742 838 917 944 835 1122 1229 1215 1228 1260 1220 1196 1109 1126 1158 1105 1088 1068 992 932 998 992 1019 1115 1250 1433 1668 1793 1813 1920 1966 1925 1996 2100 2188 2148 2226 2364 2208 2520 2667 2612 2607 2698 2758 2662 2764 2580 2586 2548 2616 2700 2742 2708 2680 2668 2599 2895 2903 2923 2989 2963 2934 3054 3096 3789 3304 3040 2732 2932 2663 2694 2940 2782 3176 3466 3461 3332
1337 1680 1535 1078 576 16 11 0 0 0 0 24 641 732 753 874 942 697 698 558 680 800 960 840 1106 1277 1268 1271 1322 1316 1210 1145 1138 1222 1132 1102 1147 1141 1046 1022 946 1033 1129 1215 1370 1530 1650 1740 1807 1855 1988 2145 2217 2131 2128 2352 2380 2184 2420 2614 2660 2578 2587 2684 2629 2577 2568 2536 2492 2602 2736 2711 2718 2617 2502 2414 2425 2584 2672 2656 2723 2819 2934 2986 3173 3034 2748 2588 2499 2542 2536 2648 2925 2709 2805 2745 2649
426 426 792 1006 940 770 612 237 84 2 18 156 614 704 750 871 918 777 679 396 373 669 894 906 1186 1293 1303 1310 1374 1407 1258 1197 1214 1248 1264 1174 1131 1140 1110 1053 990 1054 1202 1170 1288 1423 1568 1611 1680 1788 1908 2099 2150 2135 2120 2322 2343 2256 2376 2526 2604 2536 2571 2602 2582 2487 2543 2513 2478 2522 2641 2672 2675 2594 2546 2460 2334 2308 2292 2358 2486 2593 2680 2687 2878 2781 2606 2431 2274 2313 2154 2118 2015 2062 2166 2197 2072
175 243 34 82 0 1 1 0 0 0 15 157 507 643 789 856 898 823 704 381 386 692 976 1119 1239 1291 1322 1384 1418 1440 1378 1299 1255 1261 1248 1240 1157 1126 1112 1078 1009 1044 1162 1205 1319 1387 1656 1544 1580 1662 1869 1944 2057 2068 2069 2121 2283 2263 2351 2645 2623 2522 2494 2516 2562 2476 2504 2529 2490 2463 2858 2592 2584 2517 2473 2406 2329 2232 2289 2254 2415 2478 2455 2430 2445 2461 2379 2156 2009 2061 2008 1957 2060 2104 2219 2241 2181
28 28 13 16 6 3 0 0 0 3 8 1 277 669 815 802 827 816 750 608 772 958 1134 1236 1304 1336 1334 1370 1414 1447 1410 1364 1313 1314 1266 1185 1087 1027 1010 986 957 998 1172 1209 1282 1421 1518 1556 1519 1573 1761 1824 1854 1880 1927 1995 2209 2231 2243 2460 2496 2544 2410 2416 2502 2500 2488 2500 2484 2424 2858 2518 2500 2441 2256 2205 2276 2303 2258 2253 2384 2460 2470 2434 2384 2349 2282 2097 2000 2026 1976 1995 2044 2062 2177 2235 2367
0 8 0 0 0 0 0 0 0 0 16 0 284 564 726 804 751 776 762 680 967 1177 1280 1310 1323 1338 1311 1323 1379 1434 1427 1404 1375 1317 1238 1149 1092 978 949 942 945 987 1087 1176 1244 1338 1449 1547 1562 1538 1654 1659 1694 1696 1746 1777 2054 2185 2202 2409 2384 2676 2419 2340 2410 2467 2468 2442 2412 2394 2388 2442 2426 2346 2056 2101 2266 2390 2431 2437 2408 2408 2406 2408 2344 2315 2125 2010 2057 1902 1860 2043 2069 1868 2222 2235 2781
0 0 0 0 0 0 0 0 0 0 0 8 114 396 647 748 676 801 730 867 1192 1290 1317 1340 1329 1312 1296 1286 1329 1414 1424 1418 1403 1320 1216 1123 1087 1020 960 924 948 966 1021 1090 1200 1293 1500 1466 1512 1566 1549 1709 1558 1566 1592 1645 1802 2020 2098 2179 2285 2420 2414 2354 2353 2399 2435 2411 2354 2349 2334 2554 2336 2236 2028 2061 2186 2313 2411 2441 2434 2384 2360 2353 2228 2102 1812 2067 2094 2101 1952 1931 2116 2255 2184 1964 1834
0 0 0 0 0 0 0 0 0 0 0 0 47 201 510 681 640 643 730 1053 1260 1308 1339 1350 1333 1310 1288 1270 1274 1348 1410 1426 1392 1314 1237 1148 1100 1058 1008 966 960 952 1010 1066 1161 1310 1416 1428 1474 1492 1489 1534 1479 1479 1558 1506 1598 1803 1906 1992 2087 2166 2310 2349 2315 2302 2350 2359 2312 2278 2284 2240 2871 2256 2095 2084 2102 2195 2285 2338 2336 2308 2290 2240 2096 1814 1810 2335 2272 2146 2112 2429 2405 2131 1944 1384 1213
0 0 0 0 0 0 0 0 0 0 0 0 18 40 419 604 610 552 734 1121 1278 1298 1340 1347 1328 1316 1285 1274 1260 1281 1352 1392 1402 1364 1268 1166 1102 1079 1065 1000 996 983 986 1041 1105 1306 1354 1349 1414 1468 1468 1452 1437 1408 1405 1404 1441 1652 1800 1916 2010 2089 2166 2216 2198 2184 2200 2246 2225 2174 2213 2232 2544 2511 2236 2116 2633 2140 2214 2294 2170 2100 2157 2130 2049 2013 2141 2380 2199 2290 2633 2472 2355 2110 918 541 391
0 0 0 0 0 0 0 0 0 0 0 0 30 198 208 478 486 561 944 1152 1224 1272 1328 1334 1308 1317 1300 1283 1271 1256 1272 1329 1391 1380 1326 1204 1123 1100 1087 1044 1036 1010 1010 1040 1093 1213 1316 1331 1347 1380 1413 1389 1439 1304 1294 1307 1322 1499 1696 1778 1906 1946 1988 2041 2078 2052 2032 2054 2117 2102 2142 2209 2380 2324 2307 2206 2134 2113 2181 2255 2137 2050 2066 1906 2032 2169 2430 2378 2493 2629 2302 2006 1950 974 612 370 71
0 0 0 0 0 0 0 0 0 0 0 0 8 15 0 8 423 733 950 1175 1187 1232 1308 1321 1289 1292 1291 1270 1262 1264 1255 1277 1350 1356 1348 1256 1152 1117 1086 1073 1068 1040 1057 1050 1130 1202 1412 1291 1336 1327 1490 1334 1624 1295 1366 1230 1251 1317 1528 1655 1728 1762 1785 1822 1851 1826 1841 1926 1963 2045 2102 2156 2339 2236 2259 2250 2196 2128 2155 2200 2093 1966 1919 2053 2165 2044 2022 1953 2116 2191 2087 1823 1136 706 490 601 138
0 0 0 0 0 0 0 0 0 0 0 0 0 0 0 0 0 764 958 1111 1157 1165 1287 1302 1282 1260 1252 1264 1222 1242 1256 1239 1253 1283 1286 1254 1161 1115 1095 1088 1085 1060 1070 1077 1136 1187 1292 1262 1310 1235 1383 1275 1434 1380 1266 1220 1243 1223 1318 1659 1580 1630 1660 1660 1702 1771 1794 1848 1997 1944 2016 2096 2262 2202 2219 2234 2193 2143 2128 2111 2041 1938 1831 2064 2221 2133 2087 2030 2040 2049 1992 1846 882 478 536 110 139
0 0 0 0 0 0 0 0 0 0 0 0 0 0 0 0 119 774 933 1061 1064 1111 1261 1304 1279 1260 1243 1244 1236 1220 1232 1222 1206 1213 1202 1178 1146 1098 1104 1090 1098 1092 1082 1083 1132 1188 1250 1227 1505 1148 1248 1257 1331 1424 1306 1232 1232 1194 1179 1440 1484 1530 1540 1618 1664 1750 1824 1854 1923 1968 1966 2027 2277 2130 2164 2172 2141 2052 1995 1966 1924 1936 1956 2087 2242 2241 2152 2067 1875 1790 1844 1513 709 5 54 70 111
0 0 0 0 0 0 0 0 0 0 0 0 0 0 0 6 356 782 904 992 969 1014 1193 1267 1273 1272 1255 1242 1256 1241 1235 1235 1213 1182 1149 1118 1099 1082 1094 1192 1112 1132 1110 1106 1128 1163 1214 1216 1287 1142 1162 1238 1296 1410 1366 1282 1260 1227 1154 1142 1832 1504 1530 1533 1594 1703 1808 1878 1914 1956 1992 1996 2167 2074 2111 2121 2082 1944 1904 1935 1952 2032 1953 2156 2259 2314 2262 2055 2008 1900 1837 1427 689 7 51 18 132
0 0 0 0 0 0 0 0 0 0 0 0 0 0 0 364 402 726 896 927 909 934 1086 1202 1249 1256 1254 1244 1257 1276 1253 1266 1266 1224 1192 1152 1127 1108 1125 1190 1140 1192 1165 1162 1144 1139 1147 1191 1274 1386 1277 1254 1286 1385 1431 1325 1300 1295 1238 1145 1382 1557 1540 1559 1574 1621 1698 1798 1881 1932 1953 1962 2134 2000 2091 2124 2084 2156 2378 2052 2102 2152 2102 2222 2314 2316 2310 2026 1800 1930 1806 1504 621 0 25 44 86
0 0 0 0 0 0 0 0 0 0 0 0 0 0 0 365 504 660 824 905 872 875 985 1099 1181 1205 1227 1230 1245 1267 1271 1283 1292 1281 1246 1208 1181 1168 1165 1222 1209 1239 1224 1210 1182 1148 1128 1165 1227 1316 1348 1265 1296 1352 1427 1363 1327 1347 1356 1313 1206 1486 1540 1618 1643 1665 1680 1724 1796 1825 1840 1854 1891 2035 2075 2200 2200 2264 2325 2255 2294 2284 2304 2276 2310 2356 2232 2010 1856 1785 1775 1562 796 758 925 440 111
0 0 0 0 0 0 0 0 0 0 0 0 0 0 0 251 486 629 760 871 856 839 926 1024 1079 1117 1153 1184 1203 1221 1234 1249 1269 1302 1290 1265 1236 1230 1223 1236 1295 1298 1270 1262 1234 1188 1140 1152 1249 1290 1356 1289 1320 1332 1374 1354 1294 1331 1370 1399 1346 1282 1445 1512 1625 1714 1786 1858 1830 1770 1668 1665 1698 1830 2258 2254 2266 2666 2475 2315 2362 2380 2332 2353 2389 2387 2072 2026 1539 1387 1404 1302 1001 284 70 6 0
0 0 0 0 0 0 0 0 0 0 0 0 0 0 0 33 470 573 684 806 838 836 896 969 1007 1030 1054 1100 1140 1153 1168 1155 1174 1261 1290 1296 1290 1259 1257 1268 1306 1358 1335 1295 1275 1238 1190 1145 1177 1226 1331 1316 1334 1313 1336 1348 1261 1274 1342 1374 1354 1333 1341 1516 1482 1587 1735 1851 1837 1768 1649 1535 1573 1770 2336 2355 2490 2370 2534 2396 2409 2390 2389 2446 2456 2178 1983 1573 1006 818 795 886 892 439 55 30 30
0 0 0 0 0 0 0 0 0 0 0 0 0 0 0 1 376 560 628 715 807 817 859 929 967 977 984 1005 1038 1052 1052 1090 1119 1192 1239 1277 1319 1301 1262 1265 1292 1347 1386 1344 1311 1257 1221 1181 1152 1164 1267 1310 1328 1326 1285 1325 1288 1264 1257 1294 1328 1400 1433 1382 1412 1467 1584 1663 1684 1646 1597 1525 1642 1836 2207 2635 2535 2437 2486 2453 2456 2425 2442 2502 2487 2218 1838 914 664 384 656 798 588 82 433 532 21
0 0 0 0 0 0 0 0 0 0 0 0 0 0 0 5 235 526 578 647 720 768 790 864 898 930 937 956 967 970 962 1011 1048 1114 1191 1231 1272 1280 1238 1209 1230 1269 1340 1346 1320 1276 1229 1209 1162 1134 1179 1259 1284 1313 1410 1275 1273 1256 1226 1273 1364 1414 1466 1459 1448 1468 1462 1470 1475 1470 1473 1500 1734 1965 2236 2562 2744 2574 2505 2479 2503 2505 2559 2568 2531 2275 1544 571 0 0 38 85 57 150 44 266 548
0 0 0 0 0 0 0 0 0 0 0 0 0 0 0 0 265 474 544 605 622 675 727 740 810 860 903 937 970 936 916 922 950 990 1070 1141 1192 1230 1211 1154 1105 1142 1215 1282 1296 1274 1236 1213 1171 1125 1108 1189 1223 1315 1316 1206 1311 1215 1221 1276 1343 1410 1428 1386 1405 1416 1436 1455 1403 1312 1366 1588 1858 2071 2341 2548 2801 2695 2556 2546 2585 2621 2636 2573 2384 2178 1673 713 6 0 0 131 65 150 119 56 58
0 0 0 0 0 0 0 0 0 0 0 0 0 0 0 0 57 295 528 598 592 594 606 657 697 778 820 866 879 904 858 863 879 876 905 960 1029 1066 1077 1038 1006 1018 1073 1130 1181 1200 1191 1173 1146 1106 1084 1118 1168 1191 1218 1210 1224 1217 1226 1268 1319 1327 1362 1319 1324 1358 1369 1376 1514 1359 1449 1762 2034 2218 2389 2558 2762 2818 2596 2632 2684 2706 2674 2502 2282 2156 1647 703 306 0 0 1 7 0 203 95 24
0 0 0 0 0 0 0 0 0 0 0 0 0 0 0 0 0 64 390 558 593 596 580 608 623 688 746 787 803 818 810 808 800 798 800 796 828 867 885 906 924 946 1006 1032 1069 1098 1104 1104 1102 1088 1079 1099 1154 1175 1229 1401 1172 1210 1207 1256 1273 1275 1285 1326 1335 1334 1343 1379 1440 1499 1627 1924 2190 2391 2532 2650 2801 2905 2673 2687 2738 2749 2673 2492 2276 2144 1523 727 489 408 293 0 2 158 4 86 26
0 0 0 0 0 0 0 0 0 0 0 0 0 0 0 0 0 0 136 472 554 574 567 581 601 617 692 714 737 739 746 744 750 757 735 720 719 738 776 822 866 920 972 1017 1062 1081 1091 1088 1077 1073 1062 1229 1156 1197 1236 1380 1214 1216 1219 1241 1305 1248 1222 1280 1339 1356 1333 1460 1518 1628 1741 2020 2306 2462 2582 2688 2819 2892 2790 2746 2735 2729 2658 2584 2318 2093 1428 791 610 559 352 8 2 217 8 77 17
0 0 0 0 0 0 0 0 0 0 0 0 0 0 0 0 0 0 17 332 456 530 551 552 576 598 631 675 682 686 671 674 675 671 683 673 673 698 767 822 880 915 954 990 1033 1074 1094 1103 1092 1081 1070 1194 1184 1234 1285 1315 1370 1216 1226 1229 1286 1371 1279 1271 1302 1372 1405 1636 1640 1737 1906 2092 2341 2506 2585 2684 2792 2820 2828 2777 2705 2652 2524 2483 2358 1901 1342 970 745 638 220 8 18 154 2 0 0
0 0 0 0 0 0 0 0 0 0 0 0 0 0 0 0 0 0 0 153 321 464 520 530 533 578 596 635 651 634 633 604 589 618 602 595 614 649 688 750 805 890 916 956 992 1026 1055 1093 1115 1116 1102 1122 1181 1222 1333 1319 1335 1374 1192 1198 1225 1314 1408 1354 1344 1388 1475 1524 1662 1831 2028 2169 2348 2466 2532 2592 2693 2768 2793 2718 2686 2576 2414 2328 2305 1973 1552 1224 810 584 358 24 24 109 1 60 0
0 0 0 0 0 0 0 0 0 0 0 0 0 0 0 0 0 0 0 10 162 280 390 447 489 474 526 584 607 614 594 565 535 551 558 384 301 570 603 642 708 782 842 890 938 984 1020 1066 1104 1134 1134 1122 1176 1212 1271 1320 1364 1341 1236 1195 1202 1244 1316 1389 1424 1419 1461 1535 1578 1754 2036 2237 2327 2414 2495 2566 2624 2732 2741 2684 2642 2536 2303 2194 2164 2011 1767 1456 945 477 284 30 64 63 11 6 315
0 0 0 0 0 0 0 0 0 0 0 0 0 0 0 0 0 0 0 0 2 42 80 104 299 313 362 485 547 569 552 524 508 488 509 487 198 451 517 556 606 674 742 819 888 930 973 1021 1072 1124 1128 1127 1156 1212 1248 1294 1333 1362 1311 1234 1214 1208 1245 1323 1405 1436 1450 1552 1595 1632 1907 2167 2307 2381 2432 2496 2545 2604 2678 2674 2647 2508 2229 2100 2066 2030 1910 1564 1116 522 286 28 44 29 46 54 182
0 0 0 0 0 0 0 0 0 0 0 0 0 0 0 0 0 0 0 0 0 0 29 50 51 34 11 23 386 464 519 496 232 317 357 466 456 151 134 203 502 586 682 741 807 875 914 962 1011 1058 1102 1118 1147 1215 1256 1280 1307 1347 1346 1300 1249 1232 1222 1262 1338 1394 1444 1504 1592 1629 1721 2052 2224 2336 2414 2443 2472 2500 2569 2585 2541 2439 2339 2189 2051 2044 1998 1634 1222 649 508 19 27 24 44 64 54
0 0 0 0 0 0 0 0 0 0 0 0 0 0 0 0 0 0 0 0 0 0 0 7 16 14 3 4 13 69 117 160 184 210 216 218 437 155 118 137 209 470 602 690 732 805 865 907 964 996 1048 1076 1129 1180 1244 1281 1304 1340 1358 1348 1308 1290 1247 1228 1271 1350 1414 1466 1534 1611 1652 1887 2125 2275 2334 2381 2402 2416 2435 2455 2441 2406 2406 2282 2162 2162 2070 1776 1262 737 678 269 8 23 17 59 56
0 0 0 0 0 0 0 0 0 0 0 0 0 0 0 0 0 0 0 0 0 0 0 0 0 0 0 0 0 2 40 64 95 148 175 168 152 139 123 104 144 229 368 618 706 764 819 861 918 966 988 1021 1071 1146 1229 1275 1301 1329 1367 1379 1349 1295 1287 1249 1253 1297 1384 1460 1502 1554 1609 1705 1974 2162 2249 2332 2339 2340 2364 2378 2410 2458 2458 2356 2274 2260 2206 1958 1416 870 796 652 30 4 10 62 29
0 0 0 0 0 0 0 0 0 0 0 0 0 0 0 0 0 0 0 0 0 0 0 0 0 0 0 0 0 0 0 20 36 73 112 114 109 82 86 88 104 153 251 492 631 731 789 831 875 932 968 986 1025 1088 1206 1270 1293 1315 1348 1374 1371 1323 1362 1287 1263 1274 1326 1403 1488 1513 1556 1611 1811 2022 2158 2206 2298 2340 2338 2352 2414 2479 2456 2374 2334 2333 2294 2114 1556 999 892 853 110 55 10 36 33
0 0 0 0 0 0 0 0 0 0 0 0 0 0 0 0 0 0 0 0 0 0 0 0 0 0 0 0 0 0 0 0 8 30 54 76 57 52 54 60 68 106 164 332 492 633 745 802 843 891 936 964 993 1043 1154 1244 1289 1292 1317 1344 1345 1339 1324 1326 1301 1285 1301 1342 1410 1480 1519 1556 1628 1867 2024 2128 2250 2316 2356 2370 2400 2450 2440 2408 2380 2360 2318 2200 1724 1152 966 914 514 94 62 41 38
0 0 0 0 0 0 0 0 0 0 0 0 0 0 0 0 0 0 0 0 0 0 0 0 0 0 0 0 0 0 0 0 0 0 14 30 32 42 24 26 35 68 118 193 327 476 623 721 784 845 890 941 976 1014 1080 1200 1262 1286 1302 1314 1328 1328 1330 1336 1320 1290 1290 1300 1333 1400 1472 1500 1541 1677 1898 2045 2164 2276 2357 2408 2406 2392 2396 2410 2416 2370 2329 2195 1824 1294 1043 954 705 102 122 74 77
0 0 0 0 0 0 0 0 0 0 0 0 0 0 0 0 0 0 0 0 0 0 0 0 0 0 0 0 0 0 0 0 0 0 0 4 16 26 30 26 25 42 109 133 218 334 484 597 696 760 824 882 946 966 1004 1118 1214 1275 1298 1301 1315 1312 1315 1321 1325 1298 1291 1277 1295 1330 1402 1467 1499 1552 1806 1946 2089 2200 2325 2403 2414 2362 2336 2357 2366 2355 2306 2140 1810 1363 1109 1005 816 268 150 134 86
0 0 0 0 0 0 0 0 0 0 0 0 0 0 0 0 0 0 0 0 0 0 0 0 0 0 0 0 0 0 0 0 0 0 0 0 4 10 14 18 16 28 56 82 120 240 378 488 579 656 704 770 837 898 1005 1062 1155 1248 1283 1301 1310 1312 1312 1311 1318 1316 1302 1292 1301 1312 1335 1390 1442 1486 1600 1810 1988 2117 2225 2314 2350 2323 2286 2286 2300 2320 2269 2116 1851 1522 1231 1054 884 521 134 182 136
0 0 0 0 0 0 0 0 0 0 0 0 0 0 0 0 0 0 0 0 0 0 0 0 0 0 0 0 0 0 0 0 0 0 0 0 0 3 10 16 19 7 22 76 92 188 314 405 504 568 611 647 725 813 870 1056 1102 1202 1331 1290 1310 1325 1338 1328 1332 1330 1322 1312 1316 1316 1314 1332 1366 1426 1518 1668 1848 1972 2098 2176 2226 2228 2220 2227 2242 2251 2206 2126 1949 1720 1439 1163 904 666 436 150 188
0 0 0 0 0 0 0 0 0 0 0 0 0 0 0 0 0 0 0 0 0 0 0 0 0 0 0 0 0 0 0 0 0 0 0 0 0 0 3 11 12 1 2 48 92 130 218 280 283 526 573 609 650 748 844 1034 1171 1244 1267 1312 1325 1344 1358 1364 1361 1363 1366 1354 1358 1362 1348 1333 1347 1400 1473 1588 1698 1822 1928 2010 2060 2086 2097 2136 2158 2189 2162 2096 2001 1847 1621 1330 1046 788 661 160 140
Wind_Speed
13 13 11 14 12 11 11 11 11 13 14 nan nan 16 17 17 17 17 14 16 16 17 13 9 8 11 13 14 nan 10 17 nan nan nan nan nan nan 7 11 9 6 6 6 7 9 9 8 7 10 6 9 10 11 11 10 10 11 11 11 12 12 11 10 10 9 9 9 9 9 9 9 9 9 10 9 9 9 8 7 6 5 4 2 1 1 1 1 1 1 1 2 3 4 4 4 4 4
8 8 9 10 11 11 11 10 11 nan 13 nan nan 14 16 15 14 16 16 15 15 12 11 7 4 3 5 5 6 nan nan 15 15 12 nan 8 6 7 9 7 5 2 4 6 8 8 8 7 7 7 9 10 10 10 9 9 9 10 11 11 10 11 10 9 9 9 9 9 8 9 9 10 10 10 10 9 8 8 7 6 4 3 3 2 2 2 1 1 1 1 1 2 3 4 4 4 4
7 8 6 7 7 12 11 10 11 nan nan nan nan nan nan nan 13 13 13 13 7 3 3 5 3 4 4 7 10 13 nan 12 9 nan 10 7 4 9 7 6 5 3 3 7 7 7 8 6 5 6 10 10 9 9 9 9 9 10 9 10 10 11 10 10 10 9 9 9 10 10 10 11 10 10 9 8 8 7 5 5 5 4 4 3 2 1 1 3 1 2 2 2 3 4 4 4 4
5 6 7 8 6 9 10 9 nan nan nan nan nan nan nan nan nan 8 10 7 4 4 2 4 9 14 6 4 6 nan 7 nan nan nan nan 11 13 7 5 3 3 3 4 6 6 6 7 3 4 6 9 10 10 11 11 10 11 11 11 11 11 11 11 10 10 10 10 10 11 11 11 11 10 9 9 8 7 6 5 4 5 5 4 4 3 2 0 0 3 1 3 3 3 3 3 3 3
4 6 7 7 7 6 7 nan 9 nan nan nan nan nan 11 nan 6 6 7 6 6 4 2 4 7 14 8 4 7 nan 8 6 nan 13 11 12 8 6 4 2 2 2 3 5 5 5 5 3 5 6 10 11 11 11 12 11 11 11 11 11 11 10 10 10 11 11 11 11 11 11 11 10 9 9 8 7 6 5 5 5 5 4 4 3 3 2 2 3 3 4 4 4 4 4 3 3 3
1 5 9 9 7 6 6 6 6 7 nan nan nan nan 11 6 2 3 4 7 8 6 2 2 6 10 12 11 9 5 nan nan nan 10 8 10 3 4 3 3 2 2 2 3 4 4 4 4 5 9 10 11 12 11 11 10 10 10 10 10 10 11 11 11 11 11 11 11 11 11 11 10 10 9 8 7 6 6 5 5 4 4 3 2 3 3 3 1 3 3 3 4 3 3 2 3 3
2 3 8 10 11 9 8 5 6 nan nan nan nan nan 6 4 1 2 2 6 12 9 11 4 2 3 8 11 7 4 6 2 3 7 10 5 3 2 3 3 2 1 1 2 3 3 2 5 7 10 11 11 11 12 11 9 10 10 10 10 10 11 11 11 11 11 11 11 11 11 11 11 10 10 8 7 7 6 5 4 4 3 2 2 2 3 4 3 1 2 2 2 1 2 1 2 3
3 5 5 9 9 8 7 6 6 3 nan 5 7 3 4 4 3 4 5 6 8 8 8 3 5 4 9 12 7 5 6 6 6 5 6 3 2 3 3 3 1 1 1 2 3 2 4 8 11 11 11 11 11 11 10 9 9 9 10 10 10 11 11 11 11 11 11 11 11 11 11 11 11 10 9 9 8 7 5 4 4 2 2 2 1 2 3 4 5 6 4 3 2 1 1 2 2
4 5 6 9 11 8 6 7 7 nan 5 nan 5 2 2 3 3 3 4 8 7 5 4 4 7 7 6 7 9 7 8 5 7 6 4 3 2 1 4 2 1 1 0 2 3 2 1 10 10 11 11 10 10 10 9 9 9 9 10 10 10 11 11 11 11 11 10 11 11 11 11 11 12 11 11 11 10 9 7 6 6 6 5 5 5 4 3 4 4 2 3 2 2 1 1 2 2
6 7 5 7 9 10 nan nan 3 4 4 5 5 6 5 2 1 4 2 3 4 3 7 7 8 5 3 6 7 7 4 4 7 6 4 4 4 3 2 2 2 3 2 3 3 2 1 9 11 11 11 10 9 9 8 8 9 9 10 10 10 11 10 10 10 10 11 12 12 11 12 12 13 13 12 12 12 11 10 10 10 10 10 10 10 9 9 8 6 5 2 2 1 3 2 2 2
6 5 7 7 8 9 nan nan 4 5 4 4 5 7 7 4 2 1 5 2 4 5 5 3 8 3 7 9 11 9 2 3 6 8 7 7 6 3 3 3 3 4 6 5 4 3 1 3 11 11 11 10 9 8 8 8 9 9 9 10 10 10 10 10 10 11 11 12 12 12 12 13 14 14 13 13 13 13 12 12 12 13 13 13 13 13 13 12 10 9 6 6 5 6 5 4 4
5 5 7 8 10 9 nan nan 7 7 7 5 5 9 5 6 3 2 3 4 5 4 7 8 3 2 9 8 10 6 2 2 3 7 6 6 5 4 4 4 4 5 7 7 6 5 2 1 3 9 11 10 8 8 8 8 9 9 9 9 10 10 10 10 10 11 11 11 12 12 13 15 16 15 15 14 14 14 13 13 14 14 15 15 15 16 14 13 12 11 9 9 9 9 9 8 7
5 4 6 8 11 8 nan 8 11 8 5 9 12 10 9 8 8 6 5 2 3 3 7 10 6 6 4 7 9 5 1 0 3 7 8 6 5 4 5 6 6 6 7 7 8 7 4 1 0 2 5 10 8 8 8 9 8 9 9 9 10 10 11 11 11 11 11 12 12 14 15 16 17 16 16 15 15 15 14 14 15 15 15 16 16 15 13 13 11 13 9 9 11 11 11 10 10
3 5 6 12 10 10 8 nan 8 7 8 9 9 12 11 8 7 6 3 4 6 4 6 3 3 1 4 5 3 6 5 1 6 7 7 8 6 6 7 7 8 8 8 8 8 8 5 2 1 2 3 4 6 6 8 9 9 9 10 10 10 11 11 11 11 11 11 12 14 15 16 17 17 16 16 15 15 14 14 15 16 16 15 16 14 15 13 12 13 11 11 11 11 12 12 12 11
4 5 8 10 12 7 nan nan nan nan 11 10 10 14 10 5 7 8 11 8 4 0 2 2 3 1 8 9 4 1 2 2 5 7 8 9 8 7 8 8 9 9 9 7 8 9 7 4 1 2 5 7 7 8 8 8 9 9 11 11 12 12 12 12 12 11 12 14 15 16 17 17 17 16 15 15 15 15 15 15 17 15 16 15 14 14 13 14 13 12 12 13 14 13 13 13 13
3 7 6 10 11 7 10 nan nan nan nan nan 11 11 6 2 5 8 5 2 1 1 5 3 7 8 4 5 2 10 7 3 3 6 8 10 9 9 9 9 9 9 9 9 8 8 7 4 1 3 5 8 8 8 8 9 9 10 11 13 13 13 13 12 12 12 13 15 16 16 16 16 15 15 15 15 16 16 15 15 17 17 16 16 15 14 10 15 14 13 12 13 15 14 14 14 14
4 6 7 7 11 6 10 nan nan nan nan 11 11 16 14 8 5 2 3 5 12 7 2 4 3 7 5 2 8 13 11 5 3 6 8 8 8 8 9 8 8 8 8 9 9 7 7 4 1 3 6 7 7 7 8 9 10 11 11 14 14 14 13 13 12 14 14 16 16 15 16 13 13 13 14 13 16 15 16 17 17 18 18 17 16 14 12 13 13 12 13 14 13 13 13 13 14
5 6 4 9 7 8 10 nan nan nan nan 13 17 20 17 12 8 4 6 3 5 5 3 5 10 10 5 5 9 12 13 9 6 6 6 8 7 8 8 8 8 8 8 8 7 6 5 3 1 2 6 7 7 8 9 9 11 11 10 10 13 12 13 13 13 14 15 15 16 15 12 13 12 12 13 15 13 15 15 17 17 18 18 17 16 14 12 13 13 13 13 15 15 15 15 14 14
6 7 3 9 2 5 5 8 nan nan nan 14 18 20 22 19 15 9 5 5 9 6 1 5 8 9 10 9 9 9 13 11 8 6 7 8 7 8 8 8 9 9 8 7 5 5 3 2 1 2 5 7 7 8 9 9 10 10 10 10 11 13 13 13 13 14 14 14 13 12 12 11 10 10 11 13 12 15 16 18 18 17 17 16 15 13 11 13 13 12 14 15 16 16 15 15 15
4 4 4 8 2 4 8 10 nan nan nan 10 17 19 17 17 11 9 7 10 8 11 9 4 8 8 9 10 10 8 9 12 9 7 8 8 8 10 10 11 10 10 9 7 6 3 2 1 1 4 5 6 7 8 9 9 10 9 10 10 10 12 12 13 12 13 13 12 12 11 10 10 10 10 12 15 14 13 14 16 17 17 16 13 16 12 12 13 13 13 14 14 13 12 13 15 15
5 4 4 6 4 4 9 11 13 nan nan 12 16 16 16 20 14 12 12 7 11 10 11 19 13 12 12 13 13 10 9 10 10 7 7 8 8 8 9 10 11 12 10 7 5 3 2 2 3 5 5 6 5 8 8 9 10 9 9 10 10 11 11 12 12 12 12 11 11 10 9 10 9 9 10 10 10 10 12 14 14 14 13 14 13 12 12 13 11 13 12 12 13 13 13 14 14
10 6 6 8 12 nan nan nan nan nan nan nan 13 16 21 16 15 15 21 15 14 16 18 10 18 18 17 15 14 12 12 10 9 8 6 7 9 9 9 10 10 10 9 7 4 3 1 5 5 6 6 5 5 7 8 9 8 9 9 9 9 10 11 11 11 11 11 11 10 9 9 9 8 8 8 10 11 10 11 13 14 13 13 13 12 12 12 12 12 11 11 12 13 13 12 12 13
12 11 9 9 7 7 7 8 nan nan nan 6 15 18 11 22 20 21 25 20 13 12 16 15 18 21 19 17 15 13 13 12 9 8 8 7 7 7 7 9 9 8 7 5 4 3 4 6 6 6 4 5 6 7 8 9 9 9 8 8 8 10 11 11 11 11 11 10 10 9 8 8 8 7 8 10 11 10 11 12 13 12 13 12 11 11 12 12 12 12 12 13 12 11 12 13 15
12 13 nan nan nan nan nan nan nan nan nan 11 12 8 14 18 22 22 26 18 8 10 15 15 16 16 19 18 15 15 14 13 10 7 7 8 8 8 7 9 8 8 5 4 3 3 4 4 6 5 5 4 6 7 7 8 8 8 8 8 9 10 10 11 11 10 10 10 10 9 8 7 7 7 8 9 10 9 11 11 11 11 12 12 10 10 12 13 12 11 11 12 11 10 12 10 11
nan nan nan nan nan nan nan nan nan nan nan nan 5 10 16 23 19 18 28 18 11 12 17 18 20 19 17 17 14 11 9 8 9 8 5 5 7 7 8 6 7 8 6 4 3 4 4 5 5 5 5 4 6 6 7 8 8 8 8 9 9 9 10 10 10 9 9 9 9 8 7 6 7 7 8 8 8 9 10 11 11 11 11 12 11 12 13 13 13 12 11 11 10 10 9 9 9
nan nan nan nan nan nan nan nan nan nan nan nan 6 15 18 16 6 21 22 13 15 16 17 19 22 22 18 16 13 11 9 10 9 9 7 5 6 7 7 6 6 7 5 5 3 5 7 6 5 4 4 5 5 6 8 7 7 7 7 8 8 9 9 9 8 8 8 8 8 7 7 6 7 7 7 7 7 9 10 10 11 11 11 11 11 13 12 12 13 12 11 10 10 10 9 9 9
nan nan nan nan nan nan nan nan nan nan nan nan 10 13 14 13 11 17 12 16 17 19 19 18 21 23 19 15 11 7 8 9 11 8 6 4 4 4 5 6 5 4 6 4 4 7 9 6 6 5 5 5 6 7 7 7 6 7 7 8 8 9 9 8 8 8 7 7 7 6 6 7 6 7 7 7 7 9 10 10 11 10 10 11 11 12 11 12 12 13 12 11 11 11 11 10 9
nan nan nan nan nan nan nan nan nan nan nan nan nan 12 8 12 14 19 14 17 21 22 20 19 18 18 18 16 11 7 4 3 4 6 9 7 3 3 5 5 4 4 4 2 6 9 9 7 5 5 5 6 6 7 7 7 6 6 7 8 8 8 8 8 7 7 7 6 5 5 5 6 7 7 7 7 7 8 10 10 10 9 10 10 10 11 11 12 12 12 10 10 11 11 9 8 8
nan nan nan nan nan nan nan nan nan nan nan nan nan nan 7 12 24 12 12 17 21 23 21 20 18 16 16 16 11 7 5 4 4 3 4 4 3 4 5 4 4 3 4 4 8 9 8 7 5 5 5 6 6 6 6 7 7 6 6 7 7 7 8 7 7 6 6 6 5 5 6 6 6 7 7 8 8 8 10 10 10 10 9 9 9 11 11 11 10 10 9 9 10 8 7 6 7
nan nan nan nan nan nan nan nan nan nan nan nan nan 8 13 21 16 11 16 19 19 21 19 19 17 16 15 16 12 8 6 5 4 3 2 2 4 4 5 5 4 2 3 7 9 8 8 9 7 6 5 5 5 6 6 7 7 7 7 7 7 7 7 7 7 6 6 6 6 6 6 6 6 7 7 8 8 9 9 10 10 9 9 9 9 10 11 11 11 9 8 8 7 7 7 7 nan
nan nan nan nan nan nan nan nan nan nan nan nan nan nan nan nan 16 16 20 22 26 25 22 21 20 19 16 17 14 11 10 6 5 3 2 2 3 3 4 5 4 2 5 8 8 7 7 6 6 6 5 5 5 6 6 6 7 7 7 6 6 6 7 7 7 6 6 6 6 7 7 7 7 8 8 8 9 9 9 9 9 9 9 9 10 7 8 10 10 9 9 8 7 7 7 7 7
nan nan nan nan nan nan nan nan nan nan nan nan nan nan nan nan nan 18 19 22 24 24 25 24 22 21 19 17 16 13 11 7 3 2 2 1 2 2 3 4 3 1 2 7 9 8 5 5 4 5 4 5 5 5 6 6 6 6 7 6 6 6 6 7 7 6 6 5 6 7 8 8 8 9 9 8 9 8 8 9 9 8 10 10 10 13 11 11 10 9 9 11 9 7 8 6 5
nan nan nan nan nan nan nan nan nan nan nan nan nan nan nan nan 12 16 19 23 24 23 25 26 25 22 20 18 16 14 11 8 4 3 3 1 1 2 1 1 1 1 5 8 8 6 4 3 2 3 3 3 4 5 5 6 6 6 6 6 6 5 6 7 7 6 5 5 6 7 7 8 8 9 9 9 9 9 8 9 8 9 10 11 12 11 11 9 9 9 8 9 10 nan nan nan 3
nan nan nan nan nan nan nan nan nan nan nan nan nan nan nan nan 10 16 19 23 23 23 25 26 25 20 17 16 15 15 13 11 8 4 4 3 3 1 2 2 3 4 6 7 7 4 1 2 3 4 4 3 4 5 5 5 6 6 6 7 6 5 6 6 6 5 6 6 6 8 7 7 8 9 9 8 8 8 8 9 8 10 11 12 12 11 10 8 7 9 10 8 9 nan nan nan 6
nan nan nan nan nan nan nan nan nan nan nan nan nan nan nan 13 10 14 20 23 25 26 26 26 25 21 19 18 16 15 14 13 11 5 4 2 2 2 2 3 3 4 7 6 6 4 3 2 3 4 3 3 4 4 4 5 5 6 6 6 7 6 6 6 6 6 7 6 7 8 7 7 8 9 9 8 8 8 9 9 10 12 12 12 12 10 8 7 6 7 10 10 10 nan nan nan nan
nan nan nan nan nan nan nan nan nan nan nan nan nan nan nan 8 11 11 13 18 22 22 20 20 21 20 19 17 16 14 14 15 9 6 4 1 3 3 3 3 4 4 6 6 3 2 0 1 2 3 3 2 3 4 5 5 6 6 5 6 7 7 7 6 7 7 7 7 8 7 7 8 9 9 9 9 10 10 10 11 12 11 12 11 11 9 7 7 8 10 10 13 13 12 11 12 13
nan nan nan nan nan nan nan nan nan nan nan nan nan nan nan 8 8 9 10 12 15 16 21 23 23 22 19 17 17 16 14 16 11 7 4 2 1 3 3 3 4 4 4 2 1 1 1 1 1 2 1 1 2 3 4 4 4 5 6 5 6 6 6 6 7 8 7 8 8 8 7 8 9 9 9 10 11 11 11 11 11 11 10 10 9 8 8 9 9 11 13 12 15 13 nan nan nan
nan nan nan nan nan nan nan nan nan nan nan nan nan nan nan nan 7 4 5 11 18 18 18 21 23 22 20 19 18 17 15 6 7 5 3 2 1 2 2 4 3 2 3 1 1 1 1 1 2 2 1 1 2 2 3 3 4 3 3 4 4 5 5 6 8 8 7 7 8 7 7 8 9 10 10 10 11 12 11 11 11 11 10 9 7 6 7 7 10 12 14 13 11 15 nan nan nan
nan nan nan nan nan nan nan nan nan nan nan nan nan nan nan nan 7 7 9 15 14 13 17 23 24 22 20 17 15 14 10 10 9 9 6 3 3 2 2 3 3 2 1 1 1 1 1 2 3 2 2 2 3 3 3 4 4 4 3 5 4 6 7 7 8 7 6 7 7 7 7 8 9 10 11 11 11 11 11 10 11 10 9 8 7 7 8 10 12 14 16 16 14 nan 12 12 nan
nan nan nan nan nan nan nan nan nan nan nan nan nan nan nan nan 14 9 14 12 10 8 9 9 14 19 20 20 18 16 15 11 10 11 10 6 4 2 1 3 3 3 3 2 2 4 2 3 3 4 3 4 4 4 5 4 3 4 5 6 5 5 7 8 7 7 6 5 7 6 6 7 9 10 10 11 9 10 10 10 10 9 9 9 10 10 10 11 nan nan nan nan nan 15 nan 12 10
nan nan nan nan nan nan nan nan nan nan nan nan nan nan nan nan 15 9 11 11 15 12 10 11 11 13 11 9 9 11 15 13 11 10 9 8 6 5 4 1 2 3 2 3 4 3 3 4 4 5 4 6 5 5 6 3 2 3 5 8 8 8 10 8 7 7 5 5 5 4 7 7 9 10 10 11 10 10 9 9 10 10 10 9 10 11 12 13 nan nan nan 14 nan 15 13 nan nan
nan nan nan nan nan nan nan nan nan nan nan nan nan nan nan nan nan 1 6 9 14 13 12 15 12 11 11 13 14 11 10 9 10 11 13 11 7 3 1 2 3 4 4 4 3 2 1 2 3 4 4 5 6 7 5 2 2 2 2 4 5 7 7 5 5 6 5 5 6 5 5 8 9 10 10 10 10 8 8 9 10 10 10 9 11 12 12 11 12 nan nan nan nan nan 13 nan nan
nan nan nan nan nan nan nan nan nan nan nan nan nan nan nan nan nan nan 8 4 11 12 15 16 11 11 13 13 12 12 12 10 9 7 6 7 7 5 5 5 6 5 4 1 1 1 3 3 5 6 5 4 5 5 5 3 3 2 3 3 3 3 5 6 6 5 4 4 3 5 6 8 10 11 10 10 9 8 8 9 10 10 9 10 10 11 12 13 13 13 11 nan nan 13 nan nan nan
nan nan nan nan nan nan nan nan nan nan nan nan nan nan nan nan nan nan 8 5 5 11 17 17 15 15 15 13 13 13 11 10 10 12 10 7 7 9 10 10 7 6 3 2 1 2 4 5 5 6 4 4 3 3 4 4 4 2 2 3 3 4 5 6 4 3 2 2 2 4 5 7 9 11 11 11 9 8 9 10 10 9 9 10 10 12 13 12 12 10 11 nan nan 14 nan nan nan
nan nan nan nan nan nan nan nan nan nan nan nan nan nan nan nan nan nan nan 11 10 12 17 18 19 18 16 15 16 15 13 11 9 9 12 11 9 7 7 7 7 6 4 4 4 4 4 4 5 4 4 4 3 5 5 5 3 3 3 2 2 2 3 4 5 4 3 3 2 3 4 6 7 10 12 12 10 9 10 10 11 9 9 10 10 11 12 13 15 15 13 nan nan 14 nan nan nan
nan nan nan nan nan nan nan nan nan nan nan nan nan nan nan nan nan nan nan 7 1 9 15 17 19 18 15 14 14 14 12 10 8 9 9 10 10 7 6 6 4 4 4 5 5 4 4 3 4 5 6 4 3 5 5 5 5 2 2 2 3 1 1 4 6 4 4 4 3 4 4 6 6 8 11 11 11 10 10 11 10 9 9 10 10 12 13 14 15 15 14 nan nan 16 nan nan nan
nan nan nan nan nan nan nan nan nan nan nan nan nan nan nan nan nan nan nan nan 4 7 18 19 19 17 15 14 13 13 12 12 10 8 7 6 9 8 4 3 4 4 3 4 5 5 5 4 4 6 6 4 4 5 6 6 5 4 3 4 4 4 4 6 7 6 6 6 5 5 5 6 8 8 11 12 12 11 10 11 9 8 8 9 10 12 14 15 15 15 14 nan nan nan nan nan 17
nan nan nan nan nan nan nan nan nan nan nan nan nan nan nan nan nan nan nan nan nan nan nan 11 14 15 15 13 12 13 13 11 11 9 7 5 5 6 6 3 2 3 4 4 4 5 5 4 4 5 4 5 5 6 7 7 6 5 4 5 5 5 6 7 8 7 8 7 7 7 7 9 9 9 11 13 13 12 11 10 8 8 8 9 10 11 13 14 14 14 14 nan nan nan nan nan 17
nan nan nan nan nan nan nan nan nan nan nan nan nan nan nan nan nan nan nan nan nan nan nan nan nan nan nan nan 11 9 10 10 10 10 8 5 5 7 8 6 4 4 3 4 4 4 4 4 4 4 4 4 5 6 7 7 7 6 6 6 4 5 6 7 8 8 9 8 8 9 11 10 11 11 12 14 14 14 11 9 8 8 8 9 9 10 11 13 14 14 15 nan nan nan nan nan nan
nan nan nan nan nan nan nan nan nan nan nan nan nan nan nan nan nan nan nan nan nan nan nan nan nan nan nan nan nan nan 6 8 9 10 9 8 6 5 6 5 4 3 3 4 4 4 4 3 4 5 5 5 5 6 7 7 7 7 7 7 6 6 6 8 9 9 10 9 10 10 11 12 12 12 14 15 15 14 10 8 7 8 9 9 9 10 12 13 14 14 15 16 nan nan nan nan nan
nan nan nan nan nan nan nan nan nan nan nan nan nan nan nan nan nan nan nan nan nan nan nan nan nan nan nan nan nan nan nan nan nan 7 9 10 8 5 4 5 4 3 4 6 5 5 6 4 4 5 4 4 5 6 7 8 8 9 9 8 8 8 7 9 9 11 12 11 10 11 11 12 12 13 16 16 16 14 10 7 6 7 8 9 9 10 11 12 13 14 16 17 nan nan nan nan nan
nan nan nan nan nan nan nan nan nan nan nan nan nan nan nan nan nan nan nan nan nan nan nan nan nan nan nan nan nan nan nan nan nan nan 8 10 9 nan nan nan 6 6 6 6 7 8 8 8 7 7 7 7 6 6 6 7 8 10 11 11 9 9 9 10 11 11 12 12 11 11 12 13 13 15 17 18 17 14 9 7 6 6 7 8 9 10 12 12 14 15 15 15 16 nan nan nan nan
nan nan nan nan nan nan nan nan nan nan nan nan nan nan nan nan nan nan nan nan nan nan nan nan nan nan nan nan nan nan nan nan nan nan nan nan nan nan nan nan nan 8 9 8 8 9 10 11 10 10 9 9 9 9 8 9 10 11 12 12 12 11 10 11 11 12 12 13 13 12 13 15 15 16 17 19 18 13 8 7 7 6 7 7 9 10 12 13 14 15 15 16 16 nan nan nan nan
nan nan nan nan nan nan nan nan nan nan nan nan nan nan nan nan nan nan nan nan nan nan nan nan nan nan nan nan nan nan nan nan nan nan nan nan nan nan nan nan nan nan 11 11 10 10 9 11 12 12 13 12 11 12 12 12 13 12 13 13 13 13 12 12 13 13 15 15 15 15 15 16 16 17 19 19 18 14 9 8 7 6 6 8 9 10 11 13 14 14 15 16 16 17 18 nan nan
nan nan nan nan nan nan nan nan nan nan nan nan nan nan nan nan nan nan nan nan nan nan nan nan nan nan nan nan nan nan nan nan nan nan nan nan nan nan nan nan nan nan 12 12 12 13 12 12 11 13 14 13 14 15 15 16 16 15 15 14 15 14 14 14 14 16 17 16 16 16 16 16 17 19 20 20 18 14 11 9 8 7 7 7 9 10 11 12 13 14 14 15 16 17 18 19 nan
nan nan nan nan nan nan nan nan nan nan nan nan nan nan nan nan nan nan nan nan nan nan nan nan nan nan nan nan nan nan nan nan nan nan nan nan nan nan nan nan nan nan nan nan 15 17 14 13 13 12 12 13 15 15 17 17 17 17 16 16 16 16 16 16 17 18 17 16 16 18 18 19 19 21 20 20 17 13 12 11 11 9 8 8 9 10 11 11 13 13 15 16 17 18 18 19 17
nan nan nan nan nan nan nan nan nan nan nan nan nan nan nan nan nan nan nan nan nan nan nan nan nan nan nan nan nan nan nan nan nan nan nan nan nan nan nan nan nan nan nan nan nan 19 17 16 13 12 13 15 15 15 16 15 16 15 16 16 17 18 18 18 18 18 17 17 18 19 19 20 21 21 21 19 16 13 12 12 11 10 9 9 9 10 11 11 13 14 15 17 18 18 19 17 17
nan nan nan nan nan nan nan nan nan nan nan nan nan nan nan nan nan nan nan nan nan nan nan nan nan nan nan nan nan nan nan nan nan nan nan nan nan nan nan nan nan nan nan nan nan 18 17 16 13 12 12 12 13 14 14 14 15 15 15 16 16 17 18 19 18 18 17 18 19 20 21 21 21 20 21 18 15 13 13 13 13 11 9 10 10 11 12 12 13 15 16 15 18 18 17 18 17
Wind_Direction
20 32 41 43 40 53 64 63 80 78 82 nan nan 89 88 87 86 89 98 101 104 96 93 85 70 70 91 88 nan 105 121 nan nan nan nan nan nan 75 91 97 107 125 134 130 127 126 120 86 57 337 310 304 298 297 303 309 311 319 326 326 324 324 324 327 333 341 342 340 341 342 340 342 345 349 355 359 4 6 5 4 3 2 356 5 359 3 29 34 17 200 205 220 219 212 206 214 215
28 33 42 43 40 55 60 75 80 nan 85 nan nan 82 88 91 95 94 91 89 97 88 91 99 94 114 142 110 70 nan nan 136 124 118 nan 111 103 111 86 84 90 108 125 130 135 133 120 94 53 328 318 308 300 304 309 312 314 319 323 324 323 326 330 332 338 342 341 343 345 345 347 352 354 357 358 359 3 12 14 19 21 20 23 19 11 2 341 239 356 359 283 235 230 227 218 219 212
23 25 55 65 59 67 80 73 86 nan nan nan nan nan nan nan 97 104 96 89 90 42 99 119 126 118 63 96 115 120 nan 133 134 nan 120 86 90 92 78 82 102 130 138 136 139 137 128 111 32 346 317 311 312 314 312 311 314 318 322 325 329 334 334 337 341 345 347 351 353 354 359 359 1 0 359 360 6 11 14 25 39 46 48 49 38 37 334 335 320 297 288 249 234 226 223 229 224
13 46 43 62 64 71 79 73 nan nan nan nan nan nan nan nan nan 121 122 98 59 345 16 111 129 115 77 112 96 nan 134 nan nan nan nan 87 114 95 80 67 110 140 142 135 135 137 133 84 9 345 318 319 324 321 320 321 325 327 330 336 338 338 338 343 349 354 357 358 1 3 4 5 4 4 5 4 4 8 13 26 43 51 57 57 58 80 19 346 293 256 256 245 239 236 222 219 218
10 46 53 76 89 72 66 nan 71 nan nan nan nan nan 97 nan 116 143 131 103 80 57 67 115 126 129 114 67 100 nan 105 154 nan 116 129 130 141 113 104 93 108 118 118 125 133 138 124 20 343 347 324 324 325 326 325 326 330 332 336 342 342 341 345 355 0 2 3 5 8 9 9 10 11 12 12 9 10 16 21 29 41 52 56 69 91 100 117 160 176 209 210 229 232 242 228 222 228
308 50 61 102 96 58 60 57 70 85 nan nan nan nan 102 101 114 153 129 122 120 121 76 160 95 95 120 123 125 123 nan nan nan 120 119 129 110 112 115 118 103 93 104 123 131 139 120 8 337 335 324 324 325 325 327 330 333 335 344 348 349 349 355 4 8 10 7 11 15 15 15 16 19 18 14 12 18 26 29 34 43 52 63 80 105 114 120 66 156 174 211 209 228 247 260 240 268
9 68 89 86 88 65 41 33 71 nan nan nan nan nan 100 93 63 56 137 146 134 147 119 94 324 132 134 115 150 159 126 239 86 115 135 135 156 150 140 126 107 86 91 123 143 156 104 333 342 332 324 322 324 326 329 334 338 344 352 359 359 0 3 9 16 15 13 18 21 22 23 25 26 24 21 22 27 33 34 37 42 48 58 85 107 126 138 163 134 158 197 201 197 215 232 275 254
117 145 102 105 90 80 57 42 68 24 nan 52 101 75 82 61 51 65 87 102 96 119 127 88 115 163 147 132 133 157 185 171 215 208 192 178 174 179 166 130 107 42 7 152 168 177 345 341 346 327 323 322 324 330 334 340 347 357 5 7 9 8 10 16 20 21 20 23 28 30 32 33 36 34 34 38 44 48 51 49 58 64 86 98 117 140 160 170 182 199 176 186 172 352 336 288 303
146 161 150 107 105 88 92 72 67 nan 101 nan 103 37 24 46 64 73 103 121 142 131 93 116 121 157 135 176 155 165 161 203 237 255 261 261 286 219 168 155 137 109 268 213 201 203 322 345 337 330 323 325 332 340 343 348 1 10 16 18 16 16 17 19 26 27 27 30 35 37 40 43 45 46 48 52 58 63 69 74 83 88 96 101 101 104 127 146 177 217 199 204 186 152 336 316 333
165 154 150 113 91 94 nan nan 62 55 71 66 8 348 338 15 59 114 71 103 103 114 127 146 154 173 172 188 159 148 147 215 259 266 282 295 283 210 225 254 262 305 300 247 235 255 334 344 336 334 330 335 345 351 353 360 13 19 25 24 23 21 24 27 32 34 34 38 39 43 47 51 54 56 59 63 67 71 77 84 86 91 95 98 95 94 95 103 113 133 148 166 136 128 124 61 21
162 135 111 112 104 76 nan nan 95 92 68 87 18 346 333 318 307 114 113 123 115 127 139 193 194 208 168 168 154 155 193 227 286 314 320 315 299 246 228 262 290 299 308 287 268 275 322 352 339 339 341 346 356 4 8 16 25 29 33 29 28 29 31 34 37 41 41 43 45 48 52 57 61 63 67 70 73 77 83 86 92 94 95 96 94 91 90 88 93 89 94 91 87 77 76 74 69
140 99 104 91 81 62 nan nan 109 74 82 54 29 350 356 323 302 18 47 3 103 104 113 117 93 138 195 169 144 148 180 228 293 305 306 300 294 263 249 250 286 292 303 293 289 289 291 59 340 349 349 356 6 15 24 31 31 36 38 35 35 35 38 39 42 44 45 47 51 55 58 62 65 67 70 74 79 83 87 90 94 96 94 92 91 89 90 90 90 99 85 86 83 77 77 71 68
142 119 105 97 83 89 nan 102 89 69 56 52 10 12 344 334 18 33 40 81 43 57 98 113 355 119 187 166 158 165 161 150 303 310 298 285 277 259 246 264 273 278 286 292 298 302 300 307 201 42 12 5 18 25 30 37 37 41 44 40 43 44 43 43 45 47 49 53 57 60 62 66 68 71 75 79 83 88 89 91 91 92 90 86 90 93 86 86 84 75 79 76 75 73 70 69 63
151 119 120 105 99 94 105 nan 111 78 81 64 37 4 7 7 46 22 8 4 31 52 111 358 76 114 243 257 190 167 144 21 318 310 288 280 259 255 260 260 274 278 289 297 306 308 301 298 192 138 71 82 105 60 40 41 45 47 47 46 47 48 48 48 48 50 54 60 63 65 68 69 72 74 77 80 83 86 89 91 92 92 93 95 86 82 89 87 83 79 71 68 66 63 66 65 62
120 134 133 115 112 117 nan nan nan nan 88 54 44 2 19 60 357 13 6 341 70 34 310 136 73 99 55 347 345 326 169 20 322 298 286 273 268 257 258 258 273 284 296 301 306 313 309 303 223 156 134 132 124 125 119 84 50 52 53 51 51 50 50 52 52 57 61 66 69 71 72 72 76 76 78 80 83 85 86 90 94 96 96 96 98 94 91 91 84 78 72 64 63 62 64 63 66
117 163 151 128 108 112 115 nan nan nan nan nan 42 360 4 96 8 358 81 138 251 274 334 66 109 111 58 41 283 309 297 308 297 284 274 281 267 254 257 269 285 295 303 310 311 320 313 309 268 157 137 132 132 133 126 114 75 56 57 58 53 53 53 57 58 63 68 71 75 76 76 83 81 84 77 85 84 85 88 89 93 97 94 91 90 84 78 83 84 81 76 67 67 60 59 56 58
149 184 143 126 110 114 117 nan nan nan nan 87 41 8 8 15 24 148 223 280 309 348 128 141 84 130 15 131 315 298 295 287 262 273 267 256 256 253 253 261 271 289 302 317 324 322 325 316 332 163 140 132 134 135 132 120 101 66 71 64 56 57 56 60 67 69 73 80 82 81 82 95 105 104 102 100 90 91 87 89 91 92 91 88 86 87 75 72 75 78 74 76 62 59 59 59 55
214 222 181 116 95 117 110 nan nan nan nan 81 47 30 359 355 9 348 283 230 290 311 202 197 191 184 223 267 292 300 296 298 305 284 263 262 255 262 270 274 284 306 308 309 321 321 317 312 334 153 148 134 139 140 136 127 117 86 100 97 95 83 78 74 87 101 93 105 84 92 102 102 102 105 103 98 99 96 97 91 91 90 91 88 87 88 84 80 69 67 65 69 64 58 55 46 49
216 229 207 109 217 98 87 103 nan nan nan 84 55 40 15 5 342 13 336 358 336 311 211 244 230 231 243 271 291 304 311 303 308 298 297 297 282 295 288 288 297 302 309 303 303 317 301 277 201 156 152 147 146 143 135 127 118 117 108 107 102 91 99 96 109 105 115 106 110 109 104 109 105 104 100 98 89 90 88 89 91 89 88 91 91 89 94 92 89 79 70 68 65 62 52 49 44
176 212 116 109 174 166 110 108 nan nan nan 63 64 56 37 8 357 23 12 2 9 353 329 278 300 292 291 289 296 305 314 310 309 304 312 308 304 308 304 309 306 311 311 306 300 286 277 222 160 161 157 154 149 144 138 128 125 121 117 113 112 104 106 112 114 117 116 112 115 113 110 110 107 107 97 92 89 96 96 97 99 98 101 98 98 87 85 83 84 76 74 74 64 55 50 53 51
197 145 121 161 164 134 113 94 99 nan nan 60 54 62 50 25 11 27 8 4 59 50 25 341 345 321 308 309 306 305 311 316 316 310 316 313 301 293 300 306 311 312 306 290 279 279 261 184 167 161 164 157 146 141 130 126 129 126 125 120 118 120 121 123 122 123 118 116 119 115 117 112 112 108 111 112 108 103 101 93 90 90 89 89 89 82 78 74 70 66 62 58 52 49 49 49 54
194 111 137 160 185 nan nan nan nan nan nan nan 62 52 58 39 25 25 11 24 42 36 24 19 327 320 315 317 315 306 313 317 319 309 302 306 313 301 296 298 302 301 296 288 290 274 245 178 156 162 171 154 136 132 126 122 125 126 124 124 127 131 126 126 127 124 122 118 120 119 120 115 112 109 114 111 104 104 96 89 84 86 85 81 79 78 75 71 69 64 60 57 53 47 41 40 48
151 173 171 177 163 151 183 176 nan nan nan 85 56 65 61 41 35 26 21 33 60 41 4 343 333 327 323 310 310 314 318 318 317 316 298 289 286 284 299 285 294 295 291 285 269 232 206 175 155 165 156 152 127 130 138 130 130 131 132 131 131 130 130 131 127 126 122 120 117 118 114 109 107 112 104 101 99 98 91 88 83 82 81 81 77 77 75 68 62 60 59 57 52 49 47 31 30
157 167 nan nan nan nan nan nan nan nan nan 61 82 94 44 51 45 27 30 40 60 358 345 332 317 309 313 316 326 330 330 324 319 311 297 306 300 292 281 278 281 275 282 278 258 220 187 149 166 167 157 131 129 136 131 125 128 125 129 127 130 130 131 128 127 125 125 119 117 116 118 111 105 101 99 92 93 91 87 87 86 82 80 78 77 71 72 69 65 59 57 57 56 49 46 40 32
nan nan nan nan nan nan nan nan nan nan nan nan 77 64 58 44 47 12 38 34 13 343 330 327 319 318 322 320 327 329 328 322 318 310 287 272 284 285 265 275 293 292 308 284 235 195 170 165 173 161 146 126 126 126 117 126 129 132 127 133 135 122 137 129 128 130 123 123 120 117 112 110 106 98 89 89 88 88 87 85 82 79 75 74 69 67 60 64 62 56 52 51 49 51 48 46 38
nan nan nan nan nan nan nan nan nan nan nan nan 79 76 64 65 81 35 34 24 4 341 333 336 326 322 328 330 328 338 347 343 325 324 319 288 289 297 297 297 297 306 302 261 223 172 175 176 162 140 130 133 124 118 133 131 138 137 130 123 130 132 136 135 134 130 129 126 120 115 109 103 93 86 84 84 81 88 87 87 81 76 69 63 54 55 51 53 57 57 47 42 42 46 45 43 44
nan nan nan nan nan nan nan nan nan nan nan nan 73 78 74 80 48 68 39 15 350 343 343 349 339 332 329 327 324 341 353 353 349 322 304 303 307 307 299 293 307 305 286 271 193 172 178 167 144 130 131 131 139 111 136 143 136 131 132 127 134 135 145 141 136 133 130 128 123 114 103 96 89 86 81 79 81 85 87 83 77 75 72 59 46 47 39 40 42 41 37 30 27 28 34 35 42
nan nan nan nan nan nan nan nan nan nan nan nan nan 78 90 81 79 56 27 8 351 345 348 351 355 339 329 327 320 321 357 358 330 337 339 329 316 300 301 297 316 300 295 254 180 176 176 160 133 121 131 133 133 128 136 144 135 133 138 145 136 141 148 147 139 130 124 129 128 116 101 93 88 79 75 77 74 80 81 77 76 70 65 57 40 36 35 31 25 24 19 17 13 16 29 18 32
nan nan nan nan nan nan nan nan nan nan nan nan nan nan 104 82 64 51 19 4 354 348 353 355 359 353 335 329 316 309 339 342 338 346 352 323 291 284 313 308 311 287 214 200 181 177 168 158 138 117 137 133 131 124 138 146 153 152 146 142 143 142 145 149 134 123 126 129 127 109 99 86 85 76 75 75 78 73 72 72 69 59 58 50 33 28 24 13 5 4 5 4 7 4 2 2 19
nan nan nan nan nan nan nan nan nan nan nan nan nan 128 78 65 69 32 18 5 356 346 356 5 2 360 349 339 330 317 315 326 356 356 313 308 310 303 313 315 306 256 210 184 183 167 166 168 158 147 136 125 121 136 141 151 152 153 152 157 156 152 144 140 136 141 126 119 117 105 98 91 90 87 78 78 74 68 64 60 56 52 43 38 26 12 7 358 354 354 356 350 354 352 346 348 nan
nan nan nan nan nan nan nan nan nan nan nan nan nan nan nan nan 67 47 21 4 358 354 355 7 7 2 360 351 341 340 340 340 360 349 343 309 274 270 306 296 305 281 196 185 171 169 169 166 162 151 138 129 132 131 131 141 150 151 156 156 153 146 148 139 136 127 120 118 120 109 99 97 95 88 81 73 68 59 57 54 47 40 30 23 20 356 12 353 347 353 354 344 358 348 347 341 335
nan nan nan nan nan nan nan nan nan nan nan nan nan nan nan nan nan 43 26 15 5 356 353 3 6 3 3 358 349 349 351 337 350 33 23 330 306 268 300 321 312 273 185 184 180 182 166 169 167 155 137 127 132 129 131 135 139 143 149 149 149 142 139 135 134 133 130 128 120 107 96 96 93 84 77 68 66 53 47 48 41 26 24 16 2 357 3 1 353 353 353 353 356 359 343 326 338
nan nan nan nan nan nan nan nan nan nan nan nan nan nan nan nan 77 46 34 16 14 0 355 356 359 0 2 2 353 348 345 347 344 48 65 75 138 205 237 271 275 178 186 184 182 190 177 168 155 129 112 110 120 117 125 137 144 140 140 139 140 135 130 129 130 134 133 126 120 108 98 95 88 78 71 61 55 50 37 36 30 14 8 4 353 350 359 1 359 355 349 356 357 nan nan nan 335
nan nan nan nan nan nan nan nan nan nan nan nan nan nan nan nan 50 44 36 21 17 9 2 356 351 353 1 4 357 351 355 351 354 12 68 93 147 116 195 166 180 179 169 179 187 197 180 164 146 137 151 124 117 116 122 133 140 144 142 138 139 128 121 129 136 136 126 127 119 109 97 91 84 73 64 54 47 38 25 22 13 2 358 350 345 343 355 3 2 3 354 355 352 nan nan nan 339
nan nan nan nan nan nan nan nan nan nan nan nan nan nan nan 127 81 43 32 27 22 16 8 1 349 347 358 5 2 358 356 3 9 357 19 71 110 116 165 175 168 164 170 184 197 200 199 174 160 133 134 118 115 124 130 140 149 152 153 143 134 136 143 140 141 134 126 125 116 102 93 86 81 67 56 44 35 27 18 7 4 2 354 346 338 337 340 354 357 354 355 349 348 nan nan nan nan
nan nan nan nan nan nan nan nan nan nan nan nan nan nan nan 134 92 65 43 32 29 24 11 3 352 345 356 2 2 0 360 15 16 357 354 67 136 129 143 159 156 160 178 192 208 224 245 183 155 149 137 123 140 139 148 152 160 152 150 157 146 142 148 149 141 128 129 116 107 96 83 75 66 57 46 36 31 23 14 6 6 1 354 341 339 342 346 343 352 348 353 345 338 341 340 337 334
nan nan nan nan nan nan nan nan nan nan nan nan nan nan nan 132 75 49 39 37 39 23 9 3 356 349 354 4 4 5 8 18 7 3 349 11 73 129 136 148 152 159 174 197 234 303 340 33 156 80 120 126 137 140 139 148 150 156 155 134 120 136 141 143 133 126 122 111 98 87 72 65 55 48 40 27 26 25 17 9 9 5 355 348 348 358 349 350 349 349 342 339 344 344 nan nan nan
nan nan nan nan nan nan nan nan nan nan nan nan nan nan nan nan 145 126 92 56 39 22 7 2 1 356 352 1 6 6 15 349 339 4 15 341 70 80 132 147 153 138 138 175 2 346 29 107 69 70 161 116 99 97 113 123 130 120 120 116 137 144 143 129 120 120 114 109 89 78 68 57 47 40 33 20 22 20 14 10 13 7 357 354 358 344 342 344 338 340 341 337 347 352 nan nan nan
nan nan nan nan nan nan nan nan nan nan nan nan nan nan nan nan 196 157 88 59 49 25 7 5 4 1 348 356 13 6 353 9 355 9 10 351 356 34 126 141 141 96 131 92 85 101 80 72 64 39 51 36 63 71 100 95 123 131 119 151 131 153 145 133 121 118 114 98 83 69 61 51 39 35 24 15 16 18 16 10 15 4 357 351 347 350 346 349 351 351 351 350 351 nan 353 356 nan
nan nan nan nan nan nan nan nan nan nan nan nan nan nan nan nan 214 152 120 104 112 81 47 36 26 12 353 356 11 6 5 1 360 357 6 4 356 6 88 130 143 168 164 129 74 49 73 67 52 34 38 44 57 61 66 83 99 135 150 171 164 148 149 148 145 149 132 114 88 68 59 39 28 25 14 11 11 14 10 12 7 358 351 352 355 357 358 357 nan nan nan nan nan 349 nan 349 340
nan nan nan nan nan nan nan nan nan nan nan nan nan nan nan nan 233 167 136 138 138 126 104 82 53 34 6 346 13 18 9 1 357 353 356 5 12 20 31 88 167 134 112 81 62 67 136 43 40 31 40 41 49 47 48 69 127 160 172 178 175 167 172 168 164 145 129 103 92 69 50 25 20 17 6 4 3 8 4 6 0 352 342 350 351 360 1 3 nan nan nan 346 nan 347 356 nan nan
nan nan nan nan nan nan nan nan nan nan nan nan nan nan nan nan nan 144 184 164 116 122 102 76 48 30 10 359 6 17 27 7 0 358 356 2 14 15 21 8 47 71 72 79 82 75 78 65 38 41 56 53 47 40 32 36 72 83 158 162 161 159 149 155 113 88 83 69 58 48 28 13 11 8 359 357 357 355 355 358 353 340 344 348 358 1 358 348 350 nan nan nan nan nan 351 nan nan
nan nan nan nan nan nan nan nan nan nan nan nan nan nan nan nan nan nan 220 170 109 132 112 88 65 48 33 16 360 5 19 15 6 7 1 354 359 357 9 17 33 39 56 101 161 95 22 17 20 21 34 49 51 46 17 31 59 95 62 72 90 84 82 95 89 85 69 61 36 20 14 3 5 358 350 346 348 344 343 347 345 342 344 350 353 349 353 356 352 353 345 nan nan 348 nan nan nan
nan nan nan nan nan nan nan nan nan nan nan nan nan nan nan nan nan nan 245 240 142 123 114 103 84 66 52 37 18 8 14 23 11 5 359 2 358 360 6 21 27 31 10 297 322 317 357 1 354 7 20 27 38 31 18 26 31 39 44 63 83 84 85 97 102 107 154 246 336 9 352 1 357 354 349 341 338 333 331 336 337 336 344 349 349 357 357 357 353 354 358 nan nan 352 nan nan nan
nan nan nan nan nan nan nan nan nan nan nan nan nan nan nan nan nan nan nan 225 186 127 109 103 92 79 66 52 33 18 11 18 24 11 2 357 357 6 10 14 24 13 334 334 338 329 337 341 337 349 9 11 11 359 1 19 27 15 13 27 61 103 95 129 188 200 221 251 316 313 339 345 343 348 348 339 336 332 335 329 330 336 342 347 355 357 3 0 4 1 359 nan nan 359 nan nan nan
nan nan nan nan nan nan nan nan nan nan nan nan nan nan nan nan nan nan nan 237 153 99 104 104 100 91 75 61 45 28 10 6 28 41 20 358 352 352 356 9 3 359 348 346 329 307 314 308 333 345 4 358 347 347 346 357 8 350 349 351 355 344 212 219 230 235 243 262 309 315 313 312 319 332 341 335 335 336 334 333 326 337 345 345 358 4 3 6 7 4 3 nan nan 0 nan nan nan
nan nan nan nan nan nan nan nan nan nan nan nan nan nan nan nan nan nan nan nan 22 146 156 145 130 122 105 83 56 37 18 3 2 20 39 19 348 343 322 331 355 333 309 316 300 301 305 317 340 348 358 335 331 337 331 342 346 340 341 332 335 338 317 273 261 257 259 265 289 301 305 309 301 320 330 336 336 328 328 333 329 326 335 348 360 0 6 5 0 359 359 nan nan nan nan nan 354
nan nan nan nan nan nan nan nan nan nan nan nan nan nan nan nan nan nan nan nan nan nan nan 124 114 105 96 86 67 49 32 8 351 352 22 19 321 328 316 341 303 302 290 293 282 281 291 308 321 349 334 329 318 319 321 328 327 334 321 322 329 329 311 286 291 295 296 304 306 308 296 289 296 304 319 325 330 328 318 322 325 312 335 350 2 1 1 359 351 350 352 nan nan nan nan nan 349
nan nan nan nan nan nan nan nan nan nan nan nan nan nan nan nan nan nan nan nan nan nan nan nan nan nan nan nan 71 66 49 22 353 349 356 353 344 345 344 357 316 297 301 299 293 283 281 290 325 345 351 328 308 304 316 321 318 315 308 309 309 297 300 295 288 291 292 297 297 297 293 304 298 301 316 326 326 328 313 315 319 321 332 346 355 353 354 348 346 349 354 nan nan nan nan nan nan
nan nan nan nan nan nan nan nan nan nan nan nan nan nan nan nan nan nan nan nan nan nan nan nan nan nan nan nan nan nan 61 38 17 351 343 351 1 355 347 345 321 306 317 304 292 280 270 273 324 351 2 326 310 303 312 312 316 305 297 295 296 290 293 287 284 286 288 291 293 300 304 309 309 316 314 324 315 311 315 313 305 319 331 337 345 348 344 346 345 348 346 347 nan nan nan nan nan
nan nan nan nan nan nan nan nan nan nan nan nan nan nan nan nan nan nan nan nan nan nan nan nan nan nan nan nan nan nan nan nan nan 354 342 349 0 356 329 317 297 287 306 309 294 294 288 298 313 338 334 321 319 319 306 317 303 296 288 288 285 277 277 275 279 281 287 295 292 297 299 300 305 309 315 313 307 312 309 300 302 310 322 334 335 336 337 341 343 339 338 344 nan nan nan nan nan
nan nan nan nan nan nan nan nan nan nan nan nan nan nan nan nan nan nan nan nan nan nan nan nan nan nan nan nan nan nan nan nan nan nan 357 351 345 nan nan nan 277 275 290 291 307 306 311 315 308 317 321 309 308 306 302 308 298 284 290 291 293 289 272 267 267 270 277 286 289 293 296 299 302 305 306 302 306 307 298 282 287 303 316 325 329 334 338 340 337 335 333 338 349 nan nan nan nan
nan nan nan nan nan nan nan nan nan nan nan nan nan nan nan nan nan nan nan nan nan nan nan nan nan nan nan nan nan nan nan nan nan nan nan nan nan nan nan nan nan 280 281 298 311 313 321 309 304 308 304 294 301 306 303 290 286 283 291 293 289 286 285 283 280 284 285 280 283 285 288 298 299 298 300 299 302 303 285 276 281 287 304 317 322 330 339 339 334 335 338 341 350 nan nan nan nan
nan nan nan nan nan nan nan nan nan nan nan nan nan nan nan nan nan nan nan nan nan nan nan nan nan nan nan nan nan nan nan nan nan nan nan nan nan nan nan nan nan nan 302 309 313 301 294 296 303 307 302 307 302 297 293 285 287 286 285 291 293 294 289 286 279 279 276 276 280 281 283 286 294 296 296 297 301 298 275 268 274 283 290 304 320 323 333 334 331 337 343 346 349 344 348 nan nan
nan nan nan nan nan nan nan nan nan nan nan nan nan nan nan nan nan nan nan nan nan nan nan nan nan nan nan nan nan nan nan nan nan nan nan nan nan nan nan nan nan nan 298 302 301 294 282 281 290 299 308 311 303 293 293 286 289 279 278 287 292 289 283 279 277 276 276 280 285 285 288 292 288 288 293 296 298 290 269 263 274 273 280 300 307 320 323 324 328 339 344 345 343 348 353 354 nan
nan nan nan nan nan nan nan nan nan nan nan nan nan nan nan nan nan nan nan nan nan nan nan nan nan nan nan nan nan nan nan nan nan nan nan nan nan nan nan nan nan nan nan nan 289 283 290 291 294 298 298 286 284 292 295 298 298 291 285 281 282 282 282 281 279 280 281 285 286 286 288 287 289 288 293 295 294 284 265 266 267 271 274 280 296 307 309 318 325 342 346 346 347 351 358 358 353
nan nan nan nan nan nan nan nan nan nan nan nan nan nan nan nan nan nan nan nan nan nan nan nan nan nan nan nan nan nan nan nan nan nan nan nan nan nan nan nan nan nan nan nan nan 289 297 293 300 311 306 301 305 309 303 300 292 292 292 291 287 283 283 278 279 282 284 284 282 283 284 285 281 288 292 295 293 281 267 270 280 282 286 289 303 307 304 314 326 342 348 351 348 355 358 355 350
nan nan nan nan nan nan nan nan nan nan nan nan nan nan nan nan nan nan nan nan nan nan nan nan nan nan nan nan nan nan nan nan nan nan nan nan nan nan nan nan nan nan nan nan nan 282 287 292 304 307 303 302 314 311 305 301 294 293 299 292 287 281 279 276 281 281 283 281 281 280 280 278 284 288 290 294 291 271 262 276 279 285 285 289 299 309 300 306 326 342 349 344 351 353 353 347 345